This is the latest recevied weather packets stored in our database for station/object W1QED. If no packets are shown the sender has not sent any weather packets the latest 10 day(s).
| Time | Temp. | Humidity | Pressure | Rain* | Wind** | Luminosity | Snow |
|---|---|---|---|---|---|---|---|
| 1777491044 | 14.44° C | 44% | 1013.9 hPa | 0 mm | - | - | - |
| 1777490738 | 15° C | 44% | 1014.3 hPa | 0 mm | - | - | - |
| 1777490438 | 15° C | 43% | 1014.3 hPa | 0 mm | - | - | - |
| 1777490196 | 14.44° C | 45% | 1014.4 hPa | 0 mm | - | - | - |
| 1777489837 | 14.44° C | 44% | 1014.3 hPa | 0 mm | - | - | - |
| 1777489535 | 14.44° C | 45% | 1014.5 hPa | 0 mm | - | - | - |
| 1777489239 | 14.44° C | 47% | 1014.6 hPa | 0 mm | - | - | - |
| 1777488932 | 14.44° C | 46% | 1014.6 hPa | 0 mm | - | - | - |
| 1777488632 | 14.44° C | 48% | 1014.6 hPa | 0 mm | - | - | - |
| 1777488329 | 14.44° C | 48% | 1014.6 hPa | 0 mm | - | - | - |
| 1777488029 | 13.89° C | 49% | 1014.5 hPa | 0 mm | - | - | - |
| 1777487727 | 13.89° C | 48% | 1014.6 hPa | 0 mm | - | - | - |
| 1777487425 | 13.89° C | 47% | 1014.9 hPa | 0 mm | - | - | - |
| 1777487124 | 13.89° C | 50% | 1015 hPa | 0 mm | - | - | - |
| 1777486825 | 13.89° C | 49% | 1014.9 hPa | 0 mm | - | - | - |
| 1777486522 | 13.89° C | 51% | 1015.1 hPa | 0 mm | - | - | - |
| 1777486220 | 13.33° C | 52% | 1015.2 hPa | 0 mm | - | - | - |
| 1777485919 | 13.33° C | 49% | 1015.2 hPa | 0 mm | - | - | - |
| 1777485618 | 13.33° C | 53% | 1015.2 hPa | 0 mm | - | - | - |
| 1777485318 | 13.33° C | 52% | 1015.3 hPa | 0 mm | - | - | - |
| 1777485015 | 12.78° C | 52% | 1015.2 hPa | 0 mm | - | - | - |
| 1777484714 | 12.78° C | 52% | 1015.3 hPa | 0 mm | - | - | - |
| 1777484412 | 12.78° C | 52% | 1015.3 hPa | 0 mm | - | - | - |
| 1777484113 | 12.78° C | 53% | 1015.3 hPa | 0 mm | - | - | - |
| 1777483813 | 12.78° C | 56% | 1015.2 hPa | 0 mm | - | - | - |
* Rain latest hour (hover to see other rain measurements)
** Current wind speed in m/s (hover to see current wind gust speed)